[[{"header":{"parameterUnit":"m.s-1","parameterCategory":2,"la1":30.2991,"la2":30.254,"lo1":-89.0895,"lo2":-89.0444,"dy":0.0017,"dx":0.0017,"nx":28,"ny":28,"refTime":"2023-09-26T03:00:00:Z","depth":"0","parameterNumber":2,"parameterNumberName":"U-component_of_CURRENTS"},"data":[0,0,0,0,0,0,0,0,0,0,0,0,0,0,0,0,0,0,0,0,0,0,0,0,0,0,0,0,0,0,0,0,0,0,0,0,0,0,0,0,0,0,0,0,0,0,0,0,0,0,0,0,0,0,0,0,0,0,-0.286,-0.286,0,-0.2887,-0.2887,-0.2887,-0.2821,-0.2819,-0.2817,-0.2816,-0.2755,-0.2755,-0.2755,0,0,0,0,0,0,0,0,0,0,0,0,0,-0.2655,-0.266,-0.286,-0.286,-0.2861,-0.2887,-0.2887,-0.2887,-0.2821,-0.2819,-0.2817,-0.2815,-0.2755,-0.2755,-0.2755,0,0,0,0,0,0,0,0,0,0,0,0,0,-0.2716,-0.2661,-0.2859,-0.2834,-0.2832,-0.2887,-0.2887,-0.2887,-0.2822,-0.2819,-0.2816,-0.2814,-0.2755,-0.2755,-0.2755,-0.2807,0,0,-0.2755,-0.2755,0,0,0,0,0,0,0,0,-0.2713,-0.2723,-0.2837,-0.2836,-0.2834,-0.2851,-0.2793,-0.2857,-0.2822,-0.2821,-0.2816,-0.2813,-0.2784,-0.2781,-0.2788,-0.2804,-0.2802,-0.2755,-0.2755,-0.2755,-0.2755,0,0,0,0,0,0,0,-0.2709,-0.2721,-0.2866,-0.2838,-0.2837,-0.2789,-0.2795,-0.2805,-0.2812,-0.2821,-0.2818,-0.2828,-0.2781,-0.2788,-0.2786,-0.2801,-0.2755,-0.2755,-0.2755,-0.2755,-0.2833,-0.2835,0,0,0,0,0,0,-0.2723,-0.2719,-0.2866,-0.2868,-0.277,-0.2796,-0.2802,-0.2845,-0.2814,-0.2808,-0.283,-0.2825,-0.2789,-0.2786,-0.2783,-0.2792,-0.2755,-0.2755,-0.2755,-0.2831,-0.2834,-0.2836,0,0,0,0,0,0,-0.2719,-0.2737,-0.2864,-0.2794,-0.2807,-0.2803,-0.2851,-0.2847,-0.2845,-0.2822,-0.2814,-0.283,-0.2787,-0.2783,-0.2801,-0.2791,-0.2755,-0.2755,-0.2829,-0.2832,-0.2835,-0.2842,0,0,0,0,0,0,-0.2713,-0.2736,-0.2766,-0.2797,-0.2812,-0.2888,-0.2854,-0.285,-0.2858,-0.285,-0.2821,-0.2812,-0.2785,-0.2801,-0.2801,-0.279,-0.2755,-0.2826,-0.283,-0.2834,-0.2839,-0.2845,-0.285,0,0,0,0,0,-0.2706,-0.2756,-0.2768,-0.2785,-0.2857,-0.2889,-0.2892,-0.2875,-0.286,-0.2862,-0.2857,-0.2813,-0.2824,-0.2804,-0.2802,-0.2791,-0.2824,-0.2829,-0.2834,-0.2837,-0.2844,-0.285,0,0,0,0,0,0,-0.2681,-0.2756,-0.2768,-0.2839,-0.286,-0.2879,-0.2884,-0.2885,-0.2886,-0.2876,-0.2848,-0.2842,-0.2842,-0.2843,-0.282,-0.2832,-0.2814,-0.2819,-0.2817,-0.2824,-0.2829,-0.2813,-0.2755,0,0,0,0,0,-0.2697,-0.2749,-0.2801,-0.285,-0.2866,-0.288,-0.2891,-0.2887,-0.2897,-0.2893,-0.2876,-0.287,-0.2868,-0.2866,-0.2859,-0.2884,-0.2864,-0.2878,-0.2884,-0.2888,-0.2879,-0.2843,-0.2843,-0.2851,-0.2851,-0.2851,0,0,-0.27,-0.2746,-0.2776,-0.2847,-0.286,-0.2882,-0.2877,-0.2899,-0.2906,-0.289,-0.2888,-0.2883,-0.288,-0.2887,-0.2888,-0.2881,-0.2886,-0.2894,-0.2896,-0.2885,-0.2848,-0.2846,-0.2845,-0.2854,-0.2854,-0.2853,0,0,-0.2706,-0.2775,-0.2803,-0.2833,-0.2868,-0.2885,-0.2895,-0.292,-0.2916,-0.2942,-0.2919,-0.2921,-0.293,-0.2915,-0.2913,-0.2959,-0.2909,-0.2958,-0.2971,-0.2937,-0.2934,-0.2931,-0.2936,-0.2933,-0.2966,-0.2966,-0.2966,0,-0.2699,-0.2754,-0.281,-0.2836,-0.2855,-0.2887,-0.2902,-0.292,-0.2942,-0.2943,-0.2939,-0.2942,-0.2938,-0.2936,-0.2951,-0.2962,-0.2948,-0.2937,-0.2938,-0.2935,-0.2932,-0.2936,-0.2933,-0.2967,-0.2967,-0.2967,-0.2966,0,-0.2711,-0.2757,-0.2775,-0.2824,-0.2855,-0.2877,-0.2918,-0.2933,-0.2943,-0.2954,-0.2955,-0.2961,-0.2958,-0.2963,-0.2973,-0.2957,-0.2958,-0.2937,-0.2907,-0.293,-0.2936,-0.2932,-0.2968,-0.2968,-0.2967,-0.2967,0,0,-0.2656,-0.2765,-0.276,-0.279,-0.2851,-0.2878,-0.2904,-0.2932,-0.2937,-0.2957,-0.2949,-0.2969,-0.2967,-0.2968,-0.2969,-0.2954,-0.2942,-0.2944,-0.2942,-0.2925,-0.2888,-0.2699,-0.2678,-0.2907,-0.2906,-0.2905,-0.291,0,-0.2625,-0.2686,-0.274,-0.2777,-0.2809,-0.2862,-0.2884,-0.2918,-0.2938,-0.2943,-0.2953,-0.2952,-0.2971,-0.2967,-0.2956,-0.2941,-0.2929,-0.2945,-0.289,-0.2889,-0.2695,-0.2665,-0.252,-0.2493,-0.2907,-0.2906,-0.2906,0,-0.2566,-0.2635,-0.2675,-0.2768,-0.2784,-0.281,-0.285,-0.2879,-0.2906,-0.292,-0.2926,-0.2932,-0.2939,-0.2935,-0.2919,-0.2925,-0.291,-0.2897,-0.2896,-0.2704,-0.269,-0.2534,-0.2471,-0.2465,-0.29,-0.2901,-0.2901,0,-0.2454,-0.2561,-0.2598,-0.2631,-0.2747,-0.2764,-0.2814,-0.2856,-0.2861,-0.2899,-0.2882,-0.291,-0.289,-0.2889,-0.2867,-0.2899,-0.2814,-0.2856,-0.2676,-0.2667,-0.2522,-0.2497,-0.2414,-0.2815,-0.2815,-0.2815,-0.2815,0,-0.2366,-0.2387,-0.256,-0.2576,-0.2614,-0.2721,-0.2724,-0.2774,-0.281,-0.2777,-0.2857,-0.2796,-0.2865,-0.2823,-0.2842,-0.2719,-0.2793,-0.2655,-0.2628,-0.2525,-0.2501,-0.2471,-0.2515,-0.2815,-0.2815,-0.2815,-0.2815,0,-0.219,-0.2304,-0.2352,-0.2505,-0.255,-0.2568,-0.2656,-0.2648,-0.2718,-0.2669,-0.2673,-0.2701,-0.2639,-0.2673,-0.2653,-0.2635,-0.2511,-0.2513,-0.2398,-0.2353,-0.217,-0.2221,-0.2086,-0.2036,-0.2348,-0.2343,-0.2338,0,-0.2106,-0.212,-0.2266,-0.2287,-0.2346,-0.2413,-0.2428,-0.2558,-0.2554,-0.2563,-0.251,-0.2467,-0.2368,-0.2288,-0.2241,-0.2212,-0.2276,-0.2084,-0.2096,-0.2098,-0.214,-0.2186,-0.2161,-0.1961,-0.1954,-0.1948,-0.1943,0,-0.1942,-0.1983,-0.2029,-0.2083,-0.212,-0.2161,-0.2221,-0.221,-0.2313,-0.2282,-0.2185,-0.2115,-0.2012,-0.1879,-0.184,-0.1821,-0.2003,-0.1958,-0.1989,-0.1822,-0.1841,-0.1799,-0.2073,-0.1892,-0.1897,-0.1901,-0.1904,-0.1906,-0.179,-0.1776,-0.1833,-0.1859,-0.1892,-0.1882,-0.1853,-0.1911,-0.1875,-0.1818,-0.184,-0.1705,-0.1656,-0.1537,-0.1509,-0.143,-0.1555,-0.1457,-0.1529,-0.1585,-0.1472,-0.1615,-0.1363,-0.1365,-0.1367,-0.1368,-0.1369,0,-0.1617,-0.1616,-0.1617,-0.1641,-0.1585,-0.1681,-0.1683,-0.1631,-0.1537,-0.1515,-0.1424,-0.1302,-0.1186,-0.1202,-0.1128,-0.1075,-0.1111,-0.1092,-0.1186,-0.119,-0.1331,-0.1245,-0.0914,-0.0915,-0.0915,-0.0915,-0.0915,-0.0915,-0.1524,-0.1459,-0.1468,-0.1343,-0.1344,-0.1245,-0.1209,-0.1161,-0.114,-0.1,-0.0951,-0.0935,-0.0989,-0.1059,-0.1001,-0.0953,-0.1008,-0.0907,-0.1011,-0.1184,-0.1228,-0.127,-0.1197,-0.0862,-0.0862,-0.081,-0.081,-0.081]},{"header":{"parameterUnit":"m.s-1","parameterCategory":2,"la1":30.2991,"la2":30.254,"lo1":-89.0895,"lo2":-89.0444,"dy":0.0017,"dx":0.0017,"nx":28,"ny":28,"refTime":"2023-09-26T03:00:00:Z","depth":"0","parameterNumber":3,"parameterNumberName":"V-component_of_CURRENTS"},"data":[0,0,0,0,0,0,0,0,0,0,0,0,0,0,0,0,0,0,0,0,0,0,0,0,0,0,0,0,0,0,0,0,0,0,0,0,0,0,0,0,0,0,0,0,0,0,0,0,0,0,0,0,0,0,0,0,0,0,-0.0438,-0.0436,0,-0.031,-0.0308,-0.0307,-0.0232,-0.0232,-0.0232,-0.0232,-0.0043,-0.0038,-0.0033,0,0,0,0,0,0,0,0,0,0,0,0,0,-0.0524,-0.0524,-0.0438,-0.0436,-0.0435,-0.031,-0.0308,-0.0306,-0.0232,-0.0232,-0.0232,-0.0232,-0.0045,-0.0039,-0.0033,0,0,0,0,0,0,0,0,0,0,0,0,0,-0.045,-0.0523,-0.0438,-0.0384,-0.0378,-0.031,-0.0308,-0.0306,-0.0233,-0.0232,-0.0232,-0.0232,-0.0046,-0.0039,-0.0032,0.0008,0,0,-0.001,-0.0007,0,0,0,0,0,0,0,0,-0.0454,-0.0446,-0.0393,-0.0388,-0.0381,-0.0288,-0.0269,-0.0198,-0.0233,-0.0286,-0.0232,-0.0232,-0.012,-0.0107,-0.0082,0.0017,0.0025,-0.0009,-0.0005,-0.0002,0.0001,0,0,0,0,0,0,0,-0.0459,-0.0451,-0.0386,-0.0392,-0.0384,-0.0334,-0.0324,-0.0255,-0.0204,-0.0282,-0.0276,-0.0264,-0.0116,-0.009,-0.0077,0.0028,-0.0009,-0.0003,0.0002,0.0005,0.0184,0.0184,0,0,0,0,0,0,-0.0483,-0.0456,-0.039,-0.0382,-0.0419,-0.0333,-0.0322,-0.0317,-0.0206,-0.019,-0.0265,-0.0261,-0.0102,-0.0086,-0.007,-0.0036,-0.0002,0.0005,0.001,0.0183,0.0184,0.0184,0,0,0,0,0,0,-0.0486,-0.0479,-0.0395,-0.0417,-0.0403,-0.0333,-0.0327,-0.0315,-0.029,-0.0194,-0.0176,-0.0254,-0.0101,-0.008,-0.0011,-0.0027,0.0009,0.0015,0.0183,0.0183,0.0184,0.0046,0,0,0,0,0,0,-0.0489,-0.0481,-0.0488,-0.0419,-0.0403,-0.0366,-0.0327,-0.0312,-0.0284,-0.0278,-0.0179,-0.0161,-0.01,-0.0023,-0.0004,-0.0017,0.0021,0.0182,0.0183,0.0184,0.005,0.0042,0.0034,0,0,0,0,0,-0.0493,-0.0505,-0.0489,-0.0481,-0.0414,-0.0367,-0.0354,-0.0302,-0.0284,-0.0278,-0.0208,-0.0164,-0.0005,-0.0017,0.0005,-0.0006,0.0182,0.0183,0.0184,0.0053,0.0043,0.0035,0,0,0,0,0,0,-0.0548,-0.0497,-0.0478,-0.0476,-0.0431,-0.0355,-0.0346,-0.031,-0.025,-0.0245,-0.0156,-0.0133,-0.0081,-0.0016,-0.0031,0.0052,0.0095,0.01,-0.0012,-0.002,-0.0028,-0.0061,0.0027,0,0,0,0,0,-0.0566,-0.0562,-0.0502,-0.0501,-0.0483,-0.0417,-0.0392,-0.0357,-0.0295,-0.0269,-0.02,-0.0122,-0.0059,-0.002,0.0048,0.0097,0.0132,0.0107,0.0099,0.0091,0.0082,0.0092,0.0082,0.0187,0.0187,0.0187,0,0,-0.0588,-0.0559,-0.0557,-0.0513,-0.0474,-0.0455,-0.0401,-0.0372,-0.0355,-0.0256,-0.0214,-0.0148,-0.0052,-0.0004,0.0026,0.0048,0.0087,0.0092,0.0085,0.008,0.0091,0.008,0.0071,0.0187,0.0187,0.0187,0,0,-0.0627,-0.0605,-0.0612,-0.0581,-0.0532,-0.0489,-0.0487,-0.0417,-0.0387,-0.0335,-0.0267,-0.0216,-0.0105,-0.0053,-0.0009,-0.0014,0.004,0.0014,-0.0049,-0.0041,-0.0051,-0.0059,-0.0015,-0.0018,0.0014,0.0013,0.0013,0,-0.0657,-0.0658,-0.0607,-0.0603,-0.0587,-0.0513,-0.0516,-0.047,-0.0388,-0.0371,-0.0338,-0.0212,-0.0134,-0.0088,-0.0086,-0.0036,-0.0011,-0.0031,-0.0057,-0.0064,-0.007,-0.0023,-0.0025,0.0007,0.0007,0.0008,0.0009,0,-0.0692,-0.0696,-0.0698,-0.0671,-0.0647,-0.0638,-0.0574,-0.0545,-0.0501,-0.0457,-0.0408,-0.031,-0.0239,-0.0206,-0.0142,-0.0141,-0.0101,-0.0079,-0.005,-0.0091,-0.0036,-0.0036,-0.0003,-0.0,0.0002,0.0003,0,0,-0.0737,-0.073,-0.0727,-0.0739,-0.0686,-0.0672,-0.0648,-0.0609,-0.0601,-0.0532,-0.0521,-0.0422,-0.0381,-0.0327,-0.0252,-0.0235,-0.0245,-0.0181,-0.0178,-0.0166,-0.0209,-0.0109,-0.0098,-0.0242,-0.0243,-0.0244,-0.015,0,-0.0778,-0.0812,-0.0784,-0.0808,-0.0818,-0.0759,-0.0744,-0.0701,-0.0648,-0.0614,-0.0538,-0.0491,-0.0423,-0.0393,-0.0372,-0.0267,-0.0252,-0.0271,-0.0145,-0.014,-0.0071,-0.0097,-0.007,0.0021,-0.0149,-0.0149,-0.0149,0,-0.08,-0.083,-0.0874,-0.089,-0.0888,-0.0887,-0.0861,-0.0838,-0.0771,-0.0733,-0.0688,-0.0614,-0.0555,-0.0502,-0.0391,-0.0409,-0.0327,-0.0256,-0.0251,-0.0112,-0.0041,0.0037,0.0028,0.0128,-0.0148,-0.0148,-0.0148,0,-0.0841,-0.0879,-0.0928,-0.0931,-0.0935,-0.0944,-0.0934,-0.0879,-0.0859,-0.081,-0.0782,-0.0717,-0.0644,-0.058,-0.0398,-0.0413,-0.0268,-0.0268,-0.0105,-0.0095,-0.0021,-0.0003,0.0057,-0.0224,-0.0224,-0.0224,-0.0225,0,-0.0874,-0.0909,-0.0961,-0.0982,-0.1037,-0.1012,-0.1032,-0.1003,-0.0959,-0.0916,-0.0852,-0.0782,-0.0664,-0.0541,-0.0434,-0.024,-0.0295,-0.0118,-0.0073,-0.0061,-0.0049,0.0086,0.0125,-0.0221,-0.0222,-0.0222,-0.0223,0,-0.0885,-0.0919,-0.0981,-0.1033,-0.1052,-0.1084,-0.109,-0.1085,-0.1045,-0.0983,-0.0968,-0.0825,-0.0653,-0.051,-0.0343,-0.0241,-0.0022,-0.0021,0.0013,0.006,0.028,0.0311,0.0434,0.0505,0.0138,0.0141,0.0143,0,-0.0896,-0.0932,-0.102,-0.1057,-0.1082,-0.1129,-0.1137,-0.1125,-0.1092,-0.0974,-0.0924,-0.0759,-0.0584,-0.0305,-0.012,0.0071,0.0132,0.021,0.0179,0.0298,0.0364,0.0369,0.0418,0.023,0.0233,0.0236,0.0238,0,-0.092,-0.0948,-0.1001,-0.1081,-0.1121,-0.116,-0.1162,-0.1149,-0.1079,-0.1,-0.082,-0.0686,-0.0394,-0.013,0.0116,0.0218,0.0284,0.0268,0.0359,0.0418,0.0457,0.0545,0.0189,0.0259,0.0257,0.0255,0.0254,0.0253,-0.0929,-0.0976,-0.1039,-0.1103,-0.1142,-0.1147,-0.1137,-0.1079,-0.1001,-0.0796,-0.0714,-0.0441,-0.015,0.0211,0.0333,0.0563,0.0505,0.0602,0.0626,0.0618,0.0692,0.0413,0.0554,0.0553,0.0553,0.0553,0.0552,0,-0.0946,-0.0991,-0.1052,-0.1121,-0.1134,-0.1156,-0.1112,-0.1036,-0.0877,-0.0655,-0.0458,-0.0073,0.0229,0.0479,0.0775,0.0896,0.0889,0.094,0.092,0.095,0.0676,0.0687,0.0902,0.0902,0.0902,0.0902,0.0901,0.0901,-0.0958,-0.1018,-0.1052,-0.109,-0.1116,-0.1087,-0.1038,-0.0877,-0.0692,-0.031,-0.0022,0.0177,0.0466,0.089,0.1154,0.1169,0.1257,0.1244,0.1307,0.1084,0.1052,0.1022,0.1041,0.1326,0.1326,0.1554,0.1556,0.1558]}],[{"header":{"parameterUnit":"m.s-1","parameterCategory":2,"la1":30.2991,"la2":30.254,"lo1":-89.0895,"lo2":-89.0444,"dy":0.0017,"dx":0.0017,"nx":28,"ny":28,"refTime":"2023-09-26T03:00:00:Z","depth":"2","parameterNumber":2,"parameterNumberName":"U-component_of_CURRENTS"},"data":[0,0,0,0,0,0,0,0,0,0,0,0,0,0,0,0,0,0,0,0,0,0,0,0,0,0,0,0,0,0,0,0,0,0,0,0,0,0,0,0,0,0,0,0,0,0,0,0,0,0,0,0,0,0,0,0,0,0,-0.2297,-0.2298,0,-0.2323,-0.2324,-0.2324,-0.2331,-0.233,-0.233,-0.233,-0.2365,-0.2366,-0.2367,0,0,0,0,0,0,0,0,0,0,0,0,0,-0.2195,-0.2198,-0.2297,-0.2298,-0.2298,-0.2323,-0.2324,-0.2324,-0.2331,-0.233,-0.233,-0.233,-0.2365,-0.2366,-0.2367,0,0,0,0,0,0,0,0,0,0,0,0,0,-0.2233,-0.2198,-0.2297,-0.2304,-0.2305,-0.2323,-0.2324,-0.2324,-0.2331,-0.233,-0.233,-0.233,-0.2364,-0.2366,-0.2367,-0.2383,0,0,-0.2372,-0.2373,0,0,0,0,0,0,0,0,-0.2231,-0.2237,-0.2303,-0.2304,-0.2305,-0.2323,-0.2301,-0.2344,-0.2331,-0.2321,-0.233,-0.233,-0.2352,-0.2355,-0.236,-0.2385,-0.2386,-0.2373,-0.2374,-0.2374,-0.2375,0,0,0,0,0,0,0,-0.2228,-0.2235,-0.2308,-0.2303,-0.2304,-0.2286,-0.2292,-0.2309,-0.2338,-0.2322,-0.2322,-0.2325,-0.2353,-0.2359,-0.2361,-0.2387,-0.2373,-0.2374,-0.2375,-0.2376,-0.2458,-0.2459,0,0,0,0,0,0,-0.2228,-0.2233,-0.2307,-0.2309,-0.2266,-0.2288,-0.2295,-0.2318,-0.2338,-0.234,-0.2325,-0.2325,-0.2356,-0.2359,-0.2362,-0.2364,-0.2374,-0.2376,-0.2377,-0.2457,-0.2458,-0.2459,0,0,0,0,0,0,-0.2227,-0.2236,-0.2306,-0.227,-0.2277,-0.2291,-0.2317,-0.2318,-0.2329,-0.234,-0.2343,-0.2334,-0.2356,-0.236,-0.2389,-0.2366,-0.2377,-0.2378,-0.2455,-0.2457,-0.2459,-0.2378,0,0,0,0,0,0,-0.2224,-0.2235,-0.2239,-0.2271,-0.228,-0.2316,-0.2317,-0.2319,-0.2331,-0.2331,-0.2349,-0.2351,-0.2356,-0.2387,-0.2391,-0.2368,-0.2379,-0.2454,-0.2456,-0.2458,-0.2379,-0.2377,-0.2375,0,0,0,0,0,-0.222,-0.2228,-0.224,-0.2247,-0.229,-0.2316,-0.2319,-0.2326,-0.2331,-0.2335,-0.2356,-0.2351,-0.2404,-0.2389,-0.2394,-0.237,-0.2453,-0.2455,-0.2458,-0.238,-0.2377,-0.2375,0,0,0,0,0,0,-0.2189,-0.2231,-0.2243,-0.2265,-0.2288,-0.2317,-0.2323,-0.233,-0.235,-0.2356,-0.2366,-0.2371,-0.2383,-0.2408,-0.2391,-0.2409,-0.2428,-0.2431,-0.2367,-0.2364,-0.2362,-0.2337,-0.2381,0,0,0,0,0,-0.2185,-0.2205,-0.224,-0.226,-0.2277,-0.2303,-0.2311,-0.2321,-0.2346,-0.2354,-0.237,-0.2392,-0.2399,-0.2406,-0.2425,-0.2438,-0.2447,-0.2432,-0.2429,-0.2427,-0.2415,-0.2403,-0.2396,-0.2468,-0.2468,-0.2468,0,0,-0.218,-0.2205,-0.2217,-0.2254,-0.228,-0.2288,-0.2308,-0.2332,-0.2327,-0.2356,-0.2366,-0.2386,-0.2404,-0.241,-0.2418,-0.2424,-0.242,-0.243,-0.2427,-0.2416,-0.2404,-0.2397,-0.239,-0.247,-0.247,-0.2469,0,0,-0.2166,-0.221,-0.221,-0.2232,-0.2265,-0.2283,-0.2292,-0.2328,-0.2335,-0.2356,-0.2364,-0.2364,-0.2409,-0.2388,-0.2388,-0.2391,-0.2408,-0.242,-0.2378,-0.2366,-0.2358,-0.2352,-0.2373,-0.2369,-0.2416,-0.2416,-0.2416,0,-0.2151,-0.2164,-0.2213,-0.2216,-0.2226,-0.2281,-0.2275,-0.2294,-0.2329,-0.2332,-0.2357,-0.2379,-0.2382,-0.2351,-0.2349,-0.2374,-0.2401,-0.2373,-0.2357,-0.235,-0.2345,-0.2368,-0.2364,-0.2412,-0.2413,-0.2413,-0.2414,0,-0.2128,-0.2139,-0.2152,-0.2173,-0.219,-0.2207,-0.2241,-0.2264,-0.2291,-0.23,-0.2305,-0.2316,-0.2327,-0.2322,-0.2332,-0.2296,-0.234,-0.2349,-0.2346,-0.2331,-0.2359,-0.2357,-0.2407,-0.2409,-0.241,-0.2411,0,0,-0.2088,-0.2122,-0.2125,-0.2136,-0.217,-0.2195,-0.2197,-0.2211,-0.2225,-0.2245,-0.2248,-0.2225,-0.2248,-0.2251,-0.2259,-0.2236,-0.221,-0.228,-0.2281,-0.2272,-0.2223,-0.2078,-0.2063,-0.2224,-0.2223,-0.2222,-0.2264,0,-0.2049,-0.2045,-0.2064,-0.2073,-0.2084,-0.2133,-0.2133,-0.2157,-0.2194,-0.2222,-0.2211,-0.2229,-0.2217,-0.2235,-0.2202,-0.2224,-0.2199,-0.22,-0.2265,-0.2268,-0.2114,-0.2051,-0.1909,-0.1917,-0.2261,-0.2261,-0.2261,0,-0.2003,-0.2014,-0.2004,-0.2043,-0.2053,-0.2061,-0.2107,-0.2119,-0.2155,-0.2183,-0.2187,-0.2218,-0.2188,-0.2196,-0.2173,-0.219,-0.2194,-0.2197,-0.2199,-0.2082,-0.2114,-0.1989,-0.19,-0.2257,-0.2257,-0.2257,-0.2257,0,-0.1958,-0.1974,-0.197,-0.1983,-0.2027,-0.2035,-0.2064,-0.2102,-0.212,-0.2173,-0.22,-0.2191,-0.2202,-0.2192,-0.2177,-0.2202,-0.2162,-0.2201,-0.2068,-0.2062,-0.1956,-0.1939,-0.2162,-0.2162,-0.2162,-0.2162,-0.2162,0,-0.1909,-0.1908,-0.1959,-0.1967,-0.1974,-0.2022,-0.2042,-0.2074,-0.2119,-0.2121,-0.2182,-0.2165,-0.2201,-0.2186,-0.2183,-0.2092,-0.216,-0.2032,-0.2035,-0.1928,-0.1909,-0.2219,-0.2225,-0.2164,-0.2163,-0.2163,-0.2163,0,-0.1845,-0.1877,-0.1884,-0.1935,-0.1953,-0.1967,-0.2021,-0.2036,-0.2097,-0.2108,-0.2124,-0.2156,-0.2115,-0.2125,-0.2113,-0.2073,-0.2025,-0.1976,-0.1853,-0.1835,-0.1955,-0.1957,-0.1861,-0.1856,-0.1851,-0.1848,-0.1844,0,-0.1799,-0.1799,-0.1855,-0.1861,-0.188,-0.1917,-0.1928,-0.2004,-0.202,-0.2061,-0.2048,-0.204,-0.1964,-0.1898,-0.183,-0.178,-0.1877,-0.1638,-0.1609,-0.1896,-0.1912,-0.1921,-0.193,-0.1483,-0.1477,-0.1472,-0.1468,0,-0.1702,-0.1732,-0.1743,-0.1759,-0.178,-0.1801,-0.1833,-0.1838,-0.1907,-0.1907,-0.1851,-0.1799,-0.1728,-0.1569,-0.1509,-0.147,-0.1634,-0.1532,-0.1855,-0.1547,-0.1531,-0.1549,-0.1572,-0.1425,-0.1429,-0.1432,-0.1435,-0.1436,-0.1612,-0.1601,-0.1619,-0.1622,-0.1647,-0.1634,-0.1601,-0.1638,-0.1611,-0.1567,-0.1602,-0.1477,-0.1474,-0.1252,-0.1188,-0.1166,-0.1285,-0.1277,-0.1296,-0.132,-0.1234,-0.1206,-0.1027,-0.1029,-0.1031,-0.1032,-0.1034,0,-0.1472,-0.1471,-0.1472,-0.1464,-0.1428,-0.1491,-0.1485,-0.1422,-0.133,-0.132,-0.1242,-0.106,-0.0952,-0.0968,-0.0845,-0.0828,-0.0875,-0.0819,-0.0895,-0.0936,-0.0973,-0.0874,-0.0571,-0.0569,-0.0568,-0.0567,0,0,-0.1392,-0.1336,-0.134,-0.1229,-0.1227,-0.1125,-0.1086,-0.1023,-0.0984,-0.085,-0.079,-0.0846,-0.0884,-0.0706,-0.068,-0.0598,-0.0763,-0.0568,-0.0934,-0.1059,-0.1095,-0.1222,-0.1111,0,0,0,0,0]},{"header":{"parameterUnit":"m.s-1","parameterCategory":2,"la1":30.2991,"la2":30.254,"lo1":-89.0895,"lo2":-89.0444,"dy":0.0017,"dx":0.0017,"nx":28,"ny":28,"refTime":"2023-09-26T03:00:00:Z","depth":"2","parameterNumber":3,"parameterNumberName":"V-component_of_CURRENTS"},"data":[0,0,0,0,0,0,0,0,0,0,0,0,0,0,0,0,0,0,0,0,0,0,0,0,0,0,0,0,0,0,0,0,0,0,0,0,0,0,0,0,0,0,0,0,0,0,0,0,0,0,0,0,0,0,0,0,0,0,-0.031,-0.0309,0,-0.0218,-0.0217,-0.0216,-0.0157,-0.0156,-0.0156,-0.0156,0.0008,0.0012,0.0016,0,0,0,0,0,0,0,0,0,0,0,0,0,-0.0377,-0.0377,-0.031,-0.0309,-0.0308,-0.0219,-0.0217,-0.0216,-0.0157,-0.0156,-0.0156,-0.0155,0.0007,0.0012,0.0017,0,0,0,0,0,0,0,0,0,0,0,0,0,-0.0323,-0.0376,-0.031,-0.0268,-0.0263,-0.0219,-0.0217,-0.0216,-0.0157,-0.0156,-0.0156,-0.0155,0.0005,0.0011,0.0017,0.0044,0,0,0.0036,0.0038,0,0,0,0,0,0,0,0,-0.0326,-0.0321,-0.0275,-0.0271,-0.0265,-0.0199,-0.0181,-0.0125,-0.0157,-0.0197,-0.0156,-0.0155,-0.0055,-0.0044,-0.0028,0.0052,0.0059,0.0036,0.004,0.0043,0.0044,0,0,0,0,0,0,0,-0.033,-0.0324,-0.0274,-0.0274,-0.0268,-0.0234,-0.0226,-0.017,-0.0128,-0.0193,-0.0189,-0.0179,-0.0051,-0.0034,-0.0024,0.0061,0.0036,0.0041,0.0045,0.0048,0.0192,0.0192,0,0,0,0,0,0,-0.0345,-0.0328,-0.0277,-0.0271,-0.0295,-0.0233,-0.0224,-0.022,-0.013,-0.0117,-0.018,-0.0177,-0.0045,-0.0031,-0.0018,0.0027,0.0042,0.0048,0.0052,0.0192,0.0192,0.0192,0,0,0,0,0,0,-0.0347,-0.0342,-0.028,-0.0297,-0.0287,-0.0233,-0.0229,-0.0219,-0.0202,-0.0121,-0.0106,-0.0173,-0.0044,-0.0026,0.0029,0.0034,0.0051,0.0056,0.0192,0.0192,0.0192,0.0112,0,0,0,0,0,0,-0.035,-0.0343,-0.0348,-0.0298,-0.0286,-0.0259,-0.0229,-0.0217,-0.0197,-0.0192,-0.011,-0.0095,-0.0042,0.0019,0.0035,0.0042,0.0061,0.0191,0.0192,0.0192,0.0114,0.0109,0.0105,0,0,0,0,0,-0.0353,-0.036,-0.0349,-0.0343,-0.0294,-0.0259,-0.025,-0.0209,-0.0198,-0.0192,-0.0138,-0.0097,0.0033,0.0024,0.0042,0.0052,0.0191,0.0192,0.0192,0.0116,0.011,0.0105,0,0,0,0,0,0,-0.0393,-0.0354,-0.034,-0.0336,-0.0303,-0.0249,-0.0242,-0.0217,-0.0172,-0.0167,-0.0095,-0.0075,-0.0027,0.0024,0.0012,0.0095,0.0119,0.0124,0.0056,0.0051,0.0046,0.0038,0.0066,0,0,0,0,0,-0.0405,-0.0401,-0.0357,-0.0356,-0.0342,-0.0296,-0.0278,-0.0251,-0.0204,-0.0185,-0.0128,-0.0066,-0.0011,0.0027,0.008,0.0128,0.0164,0.0147,0.0143,0.0138,0.0144,0.0186,0.0186,0.0194,0.0194,0.0194,0,0,-0.0421,-0.04,-0.0397,-0.0364,-0.0337,-0.0317,-0.0284,-0.0262,-0.024,-0.0172,-0.0131,-0.0083,-0.0004,0.0045,0.0072,0.009,0.0153,0.0139,0.0135,0.0143,0.0187,0.0186,0.0185,0.0194,0.0194,0.0194,0,0,-0.0444,-0.0433,-0.0432,-0.0409,-0.0372,-0.0341,-0.0339,-0.0288,-0.0262,-0.022,-0.0167,-0.0119,-0.0033,0.0023,0.0064,0.0069,0.012,0.0087,0.0069,0.0108,0.0108,0.0107,0.0137,0.014,0.0093,0.0093,0.0093,0,-0.0465,-0.0456,-0.0427,-0.0417,-0.04,-0.0356,-0.0346,-0.0313,-0.0251,-0.0225,-0.0216,-0.0098,-0.0042,0.003,0.003,0.0059,0.0085,0.0078,0.01,0.0101,0.0102,0.0133,0.0138,0.0089,0.009,0.009,0.009,0,-0.0477,-0.0473,-0.0473,-0.0445,-0.0424,-0.0412,-0.0363,-0.0339,-0.0308,-0.0267,-0.0206,-0.0135,-0.0063,-0.004,-0.0001,0.0044,0.0058,0.0078,0.0107,0.0096,0.013,0.0136,0.0084,0.0085,0.0086,0.0087,0,0,-0.0514,-0.0487,-0.0487,-0.0484,-0.0439,-0.0426,-0.0393,-0.0344,-0.0322,-0.0268,-0.0231,-0.0147,-0.0116,-0.0068,-0.0015,0.0025,0.0045,0.005,0.0054,0.0067,0.0123,0.0158,0.0169,0.0063,0.0064,0.0065,0.0137,0,-0.053,-0.0531,-0.0503,-0.0501,-0.0496,-0.045,-0.0421,-0.0374,-0.0329,-0.0285,-0.0211,-0.0161,-0.0122,-0.0097,-0.0051,0.0026,0.0061,0.0024,0.0144,0.0148,0.017,0.0177,0.0157,0.0222,0.0143,0.0144,0.0145,0,-0.0545,-0.0544,-0.0552,-0.0529,-0.0522,-0.0513,-0.0467,-0.0437,-0.036,-0.0323,-0.0261,-0.0204,-0.0128,-0.0108,0.0015,-0.0013,0.0046,0.01,0.0105,0.0174,0.0195,0.0226,0.0237,0.0156,0.0155,0.0155,0.0154,0,-0.0589,-0.0576,-0.0589,-0.0584,-0.055,-0.0544,-0.0521,-0.0454,-0.0428,-0.0356,-0.0333,-0.0229,-0.0185,-0.0094,0.0024,0.0014,0.0153,0.0156,0.0244,0.0247,0.0276,0.028,0.0232,0.0232,0.0232,0.0232,0.0232,0,-0.0617,-0.0627,-0.0618,-0.063,-0.0639,-0.0596,-0.0591,-0.0546,-0.0485,-0.0448,-0.0368,-0.0313,-0.0182,-0.0081,0.0016,0.0159,0.015,0.0248,0.0274,0.0247,0.0247,0.0231,0.023,0.0235,0.0234,0.0233,0.0233,0,-0.0664,-0.0657,-0.068,-0.0669,-0.0666,-0.0681,-0.0651,-0.0638,-0.0577,-0.0528,-0.051,-0.0378,-0.0237,-0.0098,0.0066,0.015,0.028,0.033,0.0287,0.0307,0.0344,0.0338,0.0427,0.0429,0.043,0.0432,0.0433,0,-0.0686,-0.0705,-0.0729,-0.075,-0.0752,-0.0761,-0.0756,-0.0697,-0.0669,-0.0553,-0.0525,-0.0387,-0.0253,-0.0005,0.0164,0.0345,0.0337,0.0419,0.0404,0.035,0.0366,0.0358,0.035,0.0401,0.0402,0.0403,0.0403,0,-0.073,-0.0748,-0.0772,-0.0816,-0.0836,-0.0844,-0.0825,-0.0809,-0.0718,-0.0644,-0.05,-0.0387,-0.0154,0.0064,0.0278,0.0373,0.0389,0.0438,0.0408,0.0357,0.0333,0.0347,0.0338,0.0409,0.0409,0.0408,0.0408,0.0408,-0.0763,-0.0802,-0.0837,-0.0873,-0.0895,-0.0893,-0.0874,-0.0814,-0.0736,-0.0565,-0.0479,-0.0265,-0.0102,0.0237,0.0366,0.0473,0.0469,0.0495,0.049,0.0485,0.0471,0.0452,0.0547,0.0547,0.0547,0.0547,0.0547,0,-0.0793,-0.083,-0.0878,-0.0917,-0.0936,-0.0933,-0.0885,-0.0817,-0.0684,-0.0517,-0.0344,-0.012,0.0099,0.0259,0.0443,0.0545,0.0511,0.0548,0.0486,0.048,0.0475,0.0457,0.0532,0.0532,0.0532,0.0532,0,0,-0.0809,-0.0863,-0.0889,-0.0927,-0.0947,-0.0923,-0.0879,-0.074,-0.0592,-0.0372,-0.0199,-0.0024,0.015,0.028,0.0388,0.0474,0.0446,0.0469,0.0473,0.0381,0.0374,0.0437,0.0403,0,0,0,0,0]}],[{"header":{"parameterUnit":"m.s-1","parameterCategory":2,"la1":30.2991,"la2":30.254,"lo1":-89.0895,"lo2":-89.0444,"dy":0.0017,"dx":0.0017,"nx":28,"ny":28,"refTime":"2023-09-26T03:00:00:Z","depth":"4","parameterNumber":2,"parameterNumberName":"U-component_of_CURRENTS"},"data":[0,0,0,0,0,0,0,0,0,0,0,0,0,0,0,0,0,0,0,0,0,0,0,0,0,0,0,0,0,0,0,0,0,0,0,0,0,0,0,0,0,0,0,0,0,0,0,0,0,0,0,0,0,0,0,0,0,0,-0.128,-0.128,0,-0.1303,-0.1303,-0.1303,-0.1324,-0.1325,-0.1325,-0.1326,-0.1384,-0.1385,-0.1386,0,0,0,0,0,0,0,0,0,0,0,0,0,-0.1301,-0.13,-0.1279,-0.128,-0.1281,-0.1303,-0.1303,-0.1303,-0.1324,-0.1325,-0.1325,-0.1326,-0.1384,-0.1385,-0.1386,0,0,0,0,0,0,0,0,0,0,0,0,0,-0.13,-0.13,-0.1279,-0.1298,-0.13,-0.1303,-0.1303,-0.1303,-0.1324,-0.1325,-0.1326,-0.1327,-0.1383,-0.1385,-0.1386,-0.1373,0,0,-0.139,-0.1391,0,0,0,0,0,0,0,0,-0.13,-0.1299,-0.1294,-0.1296,-0.1299,-0.1316,-0.1332,-0.133,-0.1323,-0.1309,-0.1326,-0.1327,-0.1367,-0.1369,-0.1364,-0.1376,-0.1379,-0.139,-0.1391,-0.1392,-0.1392,0,0,0,0,0,0,0,-0.13,-0.1298,-0.1284,-0.1295,-0.1298,-0.1322,-0.1322,-0.1331,-0.1329,-0.1311,-0.1314,-0.1323,-0.1368,-0.1363,-0.1366,-0.1379,-0.139,-0.1391,-0.1392,-0.1393,-0.1454,-0.1455,0,0,0,0,0,0,-0.1303,-0.1298,-0.1283,-0.1285,-0.1308,-0.1321,-0.132,-0.1305,-0.1328,-0.1334,-0.1323,-0.1325,-0.136,-0.1364,-0.1368,-0.1398,-0.1391,-0.1393,-0.1394,-0.1453,-0.1454,-0.1455,0,0,0,0,0,0,-0.1303,-0.13,-0.1282,-0.1298,-0.1298,-0.1319,-0.1302,-0.1305,-0.1333,-0.1338,-0.1343,-0.1352,-0.1361,-0.1366,-0.1393,-0.1399,-0.1393,-0.1395,-0.1452,-0.1454,-0.1455,-0.1431,0,0,0,0,0,0,-0.1303,-0.1299,-0.1302,-0.1297,-0.1297,-0.1297,-0.1302,-0.1305,-0.1338,-0.1342,-0.1364,-0.1368,-0.1362,-0.1391,-0.1395,-0.1401,-0.1396,-0.1451,-0.1453,-0.1454,-0.143,-0.1431,-0.1431,0,0,0,0,0,-0.1303,-0.1297,-0.1301,-0.1302,-0.1295,-0.1298,-0.13,-0.1317,-0.1339,-0.1347,-0.1363,-0.1369,-0.1404,-0.1393,-0.1397,-0.1403,-0.1451,-0.1452,-0.1454,-0.143,-0.1431,-0.1431,0,0,0,0,0,0,-0.1309,-0.1299,-0.1304,-0.1295,-0.1306,-0.1304,-0.1316,-0.1336,-0.1354,-0.1366,-0.1375,-0.1379,-0.1405,-0.1414,-0.1402,-0.1429,-0.1431,-0.1433,-0.1411,-0.1412,-0.1413,-0.1415,-0.1397,0,0,0,0,0,-0.1311,-0.1305,-0.1303,-0.1303,-0.1304,-0.1318,-0.133,-0.1343,-0.1355,-0.1366,-0.1385,-0.1404,-0.1409,-0.1421,-0.143,-0.1444,-0.1449,-0.1456,-0.1456,-0.1456,-0.1463,-0.1472,-0.1474,-0.1461,-0.1461,-0.1461,0,0,-0.1315,-0.1311,-0.1309,-0.1306,-0.131,-0.1314,-0.1326,-0.1345,-0.1357,-0.1369,-0.1398,-0.1409,-0.1415,-0.1423,-0.1437,-0.1436,-0.146,-0.1459,-0.1458,-0.1465,-0.1474,-0.1475,-0.1476,-0.1462,-0.1462,-0.1462,0,0,-0.1312,-0.1313,-0.1302,-0.1312,-0.1329,-0.1333,-0.1349,-0.1364,-0.1376,-0.1402,-0.1408,-0.1422,-0.1451,-0.1438,-0.1437,-0.1452,-0.1463,-0.1471,-0.1472,-0.148,-0.1481,-0.1481,-0.1472,-0.1472,-0.147,-0.147,-0.147,0,-0.1323,-0.1307,-0.1306,-0.1305,-0.1324,-0.1346,-0.1354,-0.1359,-0.139,-0.1405,-0.1416,-0.145,-0.1448,-0.1445,-0.1443,-0.1449,-0.1461,-0.1462,-0.1478,-0.1479,-0.148,-0.1471,-0.1471,-0.1469,-0.1469,-0.1469,-0.1469,0,-0.1303,-0.1311,-0.131,-0.1312,-0.1328,-0.1344,-0.1354,-0.1379,-0.141,-0.1422,-0.1448,-0.1441,-0.1463,-0.146,-0.1452,-0.1461,-0.1468,-0.1475,-0.147,-0.148,-0.147,-0.147,-0.1467,-0.1468,-0.1468,-0.1468,0,0,-0.1288,-0.1293,-0.1301,-0.1315,-0.1342,-0.1352,-0.1371,-0.1393,-0.1422,-0.1439,-0.1471,-0.1455,-0.1471,-0.1472,-0.1465,-0.1464,-0.146,-0.1478,-0.1478,-0.1457,-0.1478,-0.1377,-0.1368,-0.148,-0.148,-0.148,-0.1462,0,-0.1283,-0.1285,-0.1294,-0.1323,-0.1331,-0.1365,-0.1385,-0.1413,-0.1442,-0.1477,-0.1467,-0.1491,-0.1468,-0.1485,-0.1476,-0.148,-0.1466,-0.1464,-0.1484,-0.1484,-0.1382,-0.1366,-0.1482,-0.1462,-0.1462,-0.1463,-0.1463,0,-0.1271,-0.1277,-0.1296,-0.1339,-0.1346,-0.1372,-0.1431,-0.1449,-0.1487,-0.1512,-0.1529,-0.1539,-0.1531,-0.1518,-0.1504,-0.1514,-0.1493,-0.1484,-0.1483,-0.1399,-0.1384,-0.1458,-0.1464,-0.1464,-0.1464,-0.1464,-0.1464,0,-0.1273,-0.1293,-0.1314,-0.1329,-0.1366,-0.1395,-0.1424,-0.1471,-0.1494,-0.1541,-0.1574,-0.1573,-0.1583,-0.1567,-0.1527,-0.1535,-0.1514,-0.1519,-0.1398,-0.1391,-0.15,-0.15,-0.15,-0.15,-0.15,-0.15,-0.15,0,-0.1272,-0.1294,-0.132,-0.1337,-0.1372,-0.1405,-0.1456,-0.1487,-0.1538,-0.1559,-0.1591,-0.1593,-0.1603,-0.1586,-0.1548,-0.1463,-0.1524,-0.139,-0.1377,-0.1489,-0.1488,-0.1499,-0.1499,-0.15,-0.15,-0.15,-0.15,0,-0.1263,-0.1286,-0.1313,-0.1357,-0.1375,-0.1403,-0.1464,-0.1493,-0.1553,-0.1584,-0.16,-0.1624,-0.1588,-0.157,-0.1539,-0.1475,-0.1415,-0.1366,-0.1474,-0.147,-0.1284,-0.1284,-0.124,-0.1236,-0.1233,-0.123,-0.1228,0,-0.1241,-0.1258,-0.132,-0.1338,-0.136,-0.1404,-0.1433,-0.1494,-0.1517,-0.1572,-0.1572,-0.1573,-0.1564,-0.1423,-0.1426,-0.1343,-0.1316,-0.1292,-0.129,-0.1264,-0.1257,-0.1262,-0.1265,-0.1223,-0.1222,-0.1221,-0.122,0,-0.1191,-0.1237,-0.1257,-0.1297,-0.1333,-0.1359,-0.14,-0.1406,-0.1463,-0.1547,-0.1483,-0.1438,-0.1393,-0.1336,-0.128,-0.1222,-0.1319,-0.1258,-0.1265,-0.1263,-0.1243,-0.124,-0.1248,-0.1209,-0.1211,-0.1212,-0.1212,0,-0.1147,-0.1156,-0.1193,-0.1214,-0.1264,-0.1261,-0.1305,-0.1299,-0.1318,-0.1383,-0.1354,-0.1337,-0.137,-0.127,-0.1216,-0.1155,-0.1135,-0.1103,-0.1117,-0.113,-0.11,-0.106,-0.0948,0,0,0,0,0,-0.1074,-0.1066,-0.1092,-0.1101,-0.1157,-0.1169,-0.1246,-0.1291,-0.1359,-0.1279,-0.1306,-0.1244,-0.1156,-0.1151,-0.1057,-0.1169,-0.1146,-0.106,-0.1121,-0.1147,-0.116,-0.1134,0,0,0,0,0,0,-0.1017,-0.1038,-0.1045,-0.0989,-0.0979,-0.1007,-0.1045,-0.1106,-0.1064,-0.1145,-0.1092,-0.1165,-0.1088,-0.1164,-0.1022,-0.1023,-0.1037,-0.1068,-0.1065,-0.114,-0.1151,-0.1162,-0.1139,0,0,0,0,0]},{"header":{"parameterUnit":"m.s-1","parameterCategory":2,"la1":30.2991,"la2":30.254,"lo1":-89.0895,"lo2":-89.0444,"dy":0.0017,"dx":0.0017,"nx":28,"ny":28,"refTime":"2023-09-26T03:00:00:Z","depth":"4","parameterNumber":3,"parameterNumberName":"V-component_of_CURRENTS"},"data":[0,0,0,0,0,0,0,0,0,0,0,0,0,0,0,0,0,0,0,0,0,0,0,0,0,0,0,0,0,0,0,0,0,0,0,0,0,0,0,0,0,0,0,0,0,0,0,0,0,0,0,0,0,0,0,0,0,0,-0.0226,-0.0225,0,-0.0189,-0.0189,-0.0189,-0.016,-0.016,-0.016,-0.0159,-0.0099,-0.0098,-0.0097,0,0,0,0,0,0,0,0,0,0,0,0,0,-0.0249,-0.0249,-0.0226,-0.0225,-0.0225,-0.0189,-0.0189,-0.0189,-0.016,-0.016,-0.016,-0.0159,-0.01,-0.0098,-0.0097,0,0,0,0,0,0,0,0,0,0,0,0,0,-0.0229,-0.0249,-0.0226,-0.0206,-0.0204,-0.019,-0.0189,-0.0188,-0.016,-0.016,-0.016,-0.0159,-0.01,-0.0098,-0.0096,-0.0093,0,0,-0.009,-0.0089,0,0,0,0,0,0,0,0,-0.023,-0.0228,-0.021,-0.0208,-0.0205,-0.0179,-0.0175,-0.0155,-0.0161,-0.0177,-0.0159,-0.0159,-0.0124,-0.012,-0.0115,-0.009,-0.0088,-0.009,-0.0089,-0.0088,-0.0088,0,0,0,0,0,0,0,-0.0231,-0.0229,-0.0212,-0.0209,-0.0206,-0.0192,-0.0189,-0.0171,-0.0153,-0.0176,-0.0174,-0.0169,-0.0122,-0.0117,-0.0113,-0.0087,-0.009,-0.0088,-0.0087,-0.0086,-0.0053,-0.0053,0,0,0,0,0,0,-0.0237,-0.0231,-0.0213,-0.021,-0.0216,-0.0192,-0.0188,-0.0188,-0.0154,-0.0148,-0.017,-0.0168,-0.012,-0.0115,-0.0111,-0.0089,-0.0088,-0.0086,-0.0085,-0.0052,-0.0053,-0.0053,0,0,0,0,0,0,-0.0238,-0.0236,-0.0214,-0.0219,-0.0215,-0.0192,-0.0192,-0.0187,-0.0183,-0.015,-0.0143,-0.017,-0.012,-0.0114,-0.0099,-0.0087,-0.0085,-0.0084,-0.0052,-0.0052,-0.0053,-0.0055,0,0,0,0,0,0,-0.0239,-0.0237,-0.0242,-0.022,-0.0215,-0.0208,-0.0192,-0.0187,-0.0181,-0.0178,-0.0148,-0.0141,-0.0119,-0.0103,-0.0097,-0.0084,-0.0082,-0.0052,-0.0052,-0.0053,-0.0055,-0.0056,-0.0056,0,0,0,0,0,-0.024,-0.0247,-0.0242,-0.024,-0.0222,-0.0208,-0.0205,-0.0187,-0.0181,-0.0181,-0.0163,-0.0142,-0.0102,-0.0101,-0.0095,-0.0081,-0.0051,-0.0052,-0.0053,-0.0054,-0.0056,-0.0056,0,0,0,0,0,0,-0.0261,-0.0244,-0.0239,-0.0241,-0.0228,-0.0204,-0.0203,-0.0192,-0.0178,-0.0176,-0.0147,-0.014,-0.0123,-0.0109,-0.0109,-0.0076,-0.0073,-0.0073,-0.0077,-0.0077,-0.0078,-0.0061,-0.008,0,0,0,0,0,-0.0269,-0.027,-0.025,-0.0254,-0.0248,-0.0228,-0.0222,-0.0209,-0.0192,-0.0186,-0.0165,-0.0144,-0.0121,-0.0106,-0.009,-0.0071,-0.0038,-0.006,-0.0061,-0.0061,-0.0045,0.0017,0.0025,-0.0055,-0.0055,-0.0055,0,0,-0.0278,-0.027,-0.0271,-0.0259,-0.0247,-0.0236,-0.0223,-0.0215,-0.0202,-0.0181,-0.0163,-0.0149,-0.012,-0.0098,-0.0089,-0.0083,-0.0027,-0.0062,-0.0063,-0.0045,0.0018,0.0026,0.0033,-0.0056,-0.0056,-0.0055,0,0,-0.0291,-0.029,-0.0291,-0.0281,-0.0266,-0.0251,-0.0251,-0.023,-0.0215,-0.0202,-0.0179,-0.0153,-0.0134,-0.0095,-0.0076,-0.0072,-0.0038,-0.008,-0.0059,0.0001,0.0009,0.0016,0.0049,0.0059,-0.0073,-0.0073,-0.0073,0,-0.0304,-0.0301,-0.0289,-0.0284,-0.0276,-0.0258,-0.0252,-0.0233,-0.0211,-0.019,-0.02,-0.0142,-0.0123,-0.0065,-0.0067,-0.0068,-0.0044,-0.0055,0.0003,0.0011,0.0019,0.0051,0.0062,-0.0074,-0.0074,-0.0074,-0.0074,0,-0.0308,-0.0309,-0.0309,-0.0295,-0.0285,-0.0281,-0.0252,-0.0238,-0.0226,-0.0199,-0.0156,-0.0127,-0.0086,-0.008,-0.0072,-0.0008,-0.0013,-0.0009,0.0011,0.0027,0.0059,0.0071,-0.0074,-0.0074,-0.0074,-0.0074,0,0,-0.0331,-0.0315,-0.0317,-0.0313,-0.0292,-0.0284,-0.0257,-0.022,-0.0196,-0.0167,-0.0126,-0.0081,-0.0061,-0.0038,-0.0017,0.0036,0.0099,0.0032,0.0036,0.0075,0.0212,0.0161,0.0169,0.0112,0.0115,0.0117,0.0205,0,-0.0338,-0.0337,-0.0321,-0.0317,-0.0313,-0.0285,-0.0262,-0.0225,-0.0194,-0.0153,-0.0091,-0.0057,-0.0045,-0.0032,0.0029,0.0076,0.0134,0.0073,0.0183,0.0186,0.0148,0.0183,0.0125,0.0214,0.0217,0.0219,0.0221,0,-0.0347,-0.0344,-0.0347,-0.0326,-0.0321,-0.0316,-0.0274,-0.0249,-0.0177,-0.0151,-0.0086,-0.0049,0.0035,0.0032,0.0162,0.0119,0.017,0.0211,0.0216,0.0184,0.0159,0.0199,0.0244,0.0242,0.024,0.0239,0.0237,0,-0.0377,-0.0362,-0.0369,-0.0365,-0.0338,-0.033,-0.0311,-0.0253,-0.0229,-0.0151,-0.0129,-0.0019,0.0016,0.0118,0.0189,0.0182,0.032,0.0324,0.0336,0.0332,0.0353,0.0344,0.0434,0.0434,0.0434,0.0434,0.0434,0,-0.0395,-0.0401,-0.0388,-0.0397,-0.0396,-0.0363,-0.0349,-0.0312,-0.0254,-0.0222,-0.0137,-0.0093,0.0038,0.0123,0.0205,0.0297,0.0338,0.0356,0.0363,0.0343,0.0333,0.036,0.0351,0.0437,0.0436,0.0436,0.0435,0,-0.0434,-0.0426,-0.044,-0.0424,-0.0419,-0.0426,-0.0397,-0.0382,-0.0323,-0.0278,-0.0257,-0.0141,-0.003,0.009,0.0243,0.0295,0.04,0.0422,0.0376,0.0376,0.0372,0.0361,0.0469,0.0468,0.0467,0.0467,0.0466,0,-0.0451,-0.0465,-0.0479,-0.0496,-0.0498,-0.0495,-0.0492,-0.0432,-0.0409,-0.0309,-0.0289,-0.0176,-0.0092,0.0099,0.0214,0.0376,0.0389,0.0437,0.0434,0.0385,0.0382,0.0371,0.0361,0.0465,0.0465,0.0465,0.0465,0,-0.0485,-0.0505,-0.0521,-0.0559,-0.0576,-0.0575,-0.0559,-0.0541,-0.0461,-0.0414,-0.0294,-0.0179,-0.0059,0.0094,0.0202,0.0319,0.0408,0.0431,0.0434,0.0431,0.0382,0.0377,0.0368,0.0462,0.0463,0.0463,0.0463,0,-0.0517,-0.0548,-0.0581,-0.0607,-0.0636,-0.0636,-0.0619,-0.056,-0.0513,-0.0383,-0.035,-0.0194,-0.0094,0.0062,0.0168,0.0269,0.0303,0.0336,0.0345,0.0349,0.0276,0.0194,0.024,0,0,0,0,0,-0.0534,-0.057,-0.0614,-0.0643,-0.0676,-0.0678,-0.065,-0.0619,-0.0538,-0.0457,-0.0389,-0.0266,-0.0078,0.0008,0.0105,0.0131,0.0291,0.0243,0.0326,0.0449,0.0452,0.0381,0,0,0,0,0,0,-0.0547,-0.0599,-0.062,-0.0661,-0.0685,-0.0703,-0.0684,-0.0633,-0.0561,-0.0468,-0.0361,-0.0268,-0.0087,-0.0138,0.0098,0.0129,0.0189,0.0343,0.0344,0.0448,0.045,0.0452,0.0381,0,0,0,0,0]}]]